This is the latest recevied weather packets stored in our database for station/object DL1SEW-6. If no packets are shown the sender has not sent any weather packets the latest 10 day(s).
| Time | Temp. | Humidity | Pressure | Rain* | Wind** | Luminosity | Snow |
|---|---|---|---|---|---|---|---|
| 1778102703 | 8.33° C | 89% | 1009.8 hPa | 0.25 mm | - | 0 W/m² | - |
| 1778101803 | 8.33° C | 89% | 1009.7 hPa | 0.51 mm | - | 0 W/m² | - |
| 1778100903 | 8.33° C | 89% | 1009.6 hPa | 0.51 mm | - | 0 W/m² | - |
| 1778100003 | 8.33° C | 88% | 1009.5 hPa | 0.51 mm | - | 0 W/m² | - |
| 1778099103 | 8.89° C | 88% | 1009.5 hPa | 0.51 mm | - | 0 W/m² | - |
| 1778098202 | 8.89° C | 88% | 1009.3 hPa | 0.51 mm | - | 0 W/m² | - |
| 1778097302 | 8.89° C | 88% | 1009.1 hPa | 0.25 mm | - | 0 W/m² | - |
| 1778096403 | 8.89° C | 88% | 1008.7 hPa | 0.25 mm | - | 0 W/m² | - |
| 1778095504 | 9.44° C | 88% | 1008.7 hPa | 0 mm | - | 0 W/m² | - |
| 1778094602 | 9.44° C | 89% | 1008.4 hPa | 0 mm | - | 0 W/m² | - |
| 1778093703 | 9.44° C | 89% | 1008.2 hPa | 0 mm | - | 0 W/m² | - |
| 1778092802 | 9.44° C | 89% | 1007.9 hPa | 0.25 mm | - | 0 W/m² | - |
| 1778091901 | 9.44° C | 89% | 1007.6 hPa | 0.51 mm | - | 0 W/m² | - |
| 1778091007 | 10° C | 90% | 1007.5 hPa | 0.51 mm | - | 9 W/m² | - |
| 1778090106 | 10° C | 90% | 1007.2 hPa | 0.51 mm | - | 16 W/m² | - |
| 1778089206 | 10° C | 89% | 1007.1 hPa | 0.51 mm | - | 21 W/m² | - |
| 1778088307 | 10° C | 89% | 1006.7 hPa | 0.76 mm | - | 27 W/m² | - |
| 1778087405 | 10° C | 89% | 1006.7 hPa | 1.27 mm | - | 25 W/m² | - |
| 1778086506 | 10.56° C | 88% | 1006.7 hPa | 1.27 mm | - | 40 W/m² | - |
| 1778085606 | 10.56° C | 88% | 1006.8 hPa | 1.27 mm | - | 26 W/m² | - |
| 1778084706 | 10.56° C | 86% | 1006.8 hPa | 1.02 mm | - | 32 W/m² | - |
| 1778083805 | 11.11° C | 86% | 1006.9 hPa | 1.02 mm | - | 33 W/m² | - |
| 1778082905 | 11.67° C | 87% | 1006.8 hPa | 1.02 mm | - | 49 W/m² | - |
| 1778082006 | 11.67° C | 87% | 1006.7 hPa | 1.02 mm | - | 94 W/m² | - |
| 1778081104 | 11.67° C | 88% | 1006.4 hPa | 0.76 mm | - | 68 W/m² | - |
* Rain latest hour (hover to see other rain measurements)
** Current wind speed in m/s (hover to see current wind gust speed)